{"data":{"norad_id":62074,"epoch":"2026-09-21T16:51:59.101632Z","epoch_age_seconds":77222,"freshness":"FRESH","line1":"1 62074U 24217T   26264.70276738  .00030390  00000+0  90655-3 0  9997","line2":"2 62074  53.1591 359.7628 0001146  76.1957 283.9173 15.34413302103487","mean_motion":15.34413302,"eccentricity":0.0001146,"inclination_deg":53.1591,"raan_deg":359.7628,"arg_perigee_deg":76.1957,"mean_anomaly_deg":283.9173,"bstar":0.00090655,"rev_number":10348,"period_min":93.846944504656,"perigee_km":461.87974838476,"apogee_km":463.44765990615,"semimajor_km":6840.8007041455,"source":"CELESTRAK","updated_at":"2026-09-22T09:00:49.495288Z"}}